Theta_e
336 337 337 336 336 336 335 335 335 334 334 334 333 334 334 334 334 333 333 332 333 332 331 331 330 333 335 335 335 334 334 334 333 334 335 334 333 332 331 330 327 325 323 324 325 326 327 327 325 323 323 323 324 322 321 321 322 322 322 323 322 322 322 321 321 322 322 321 321 321 321 321 321 320 320 320 320 321 322 322 322 323 323 323 324
336 336 337 337 336 336 336 336 336 335 335 335 334 335 335 335 335 334 333 333 333 332 332 332 331 332 334 334 334 334 334 334 332 333 334 335 334 332 331 330 327 325 324 325 326 327 327 327 326 323 320 320 322 323 323 322 322 321 320 321 321 321 321 319 320 321 321 321 321 321 321 320 320 320 320 320 320 321 321 320 321 322 322 323 323
337 336 337 337 337 337 336 336 336 336 336 336 336 336 336 336 336 336 335 334 334 334 334 334 332 332 333 333 334 333 333 333 332 332 334 335 334 332 330 329 328 327 326 326 327 328 328 327 325 323 322 323 324 324 324 323 322 320 317 318 319 320 320 319 320 321 321 320 320 320 320 319 319 319 319 319 319 320 319 319 320 321 321 322 322
338 337 337 337 337 337 336 336 337 336 336 336 337 337 337 338 338 338 337 336 335 335 335 334 333 332 332 332 333 333 333 333 331 330 333 334 334 334 331 329 328 328 328 327 327 327 328 326 325 325 326 326 325 323 323 322 320 318 316 316 317 318 320 321 320 320 319 320 320 320 320 319 318 318 318 319 319 319 319 319 319 319 320 321 321
340 338 336 336 337 338 338 337 337 338 338 337 337 337 337 337 337 337 336 336 336 336 335 335 333 333 332 332 332 332 333 333 330 330 331 332 333 333 332 331 328 328 329 328 328 328 328 327 326 326 327 328 326 324 323 322 319 317 314 313 315 316 318 319 319 319 319 319 319 319 319 319 318 318 318 318 319 319 318 319 318 319 319 320 320
340 339 337 337 338 338 338 338 338 338 338 338 337 336 337 336 335 335 335 335 336 335 335 334 333 333 333 333 333 333 334 333 332 331 331 330 332 333 333 332 330 329 329 327 327 328 329 329 329 328 328 329 329 326 324 322 319 316 313 312 316 317 315 314 316 318 318 317 316 317 317 317 318 318 318 318 318 318 318 318 318 318 319 319 319
339 340 339 338 338 338 338 337 338 338 337 338 337 336 336 337 335 335 335 334 335 334 334 334 333 333 333 334 334 334 334 333 332 333 332 331 332 333 332 331 331 330 330 328 327 327 329 329 329 329 329 329 329 328 325 321 317 314 311 311 315 317 316 315 315 315 317 316 315 316 316 316 317 318 318 318 318 318 318 317 318 318 318 319 318
339 340 340 338 336 336 337 337 338 338 338 338 337 336 336 337 336 336 335 334 334 334 334 334 334 334 335 335 335 335 335 333 332 333 333 331 331 332 332 332 331 331 330 330 329 327 328 327 327 328 328 328 328 326 325 321 317 315 313 313 313 315 318 319 317 314 316 317 315 316 318 316 315 316 317 317 316 316 316 315 316 317 317 318 317
338 339 339 337 335 334 337 338 338 338 339 338 337 335 336 337 337 336 335 334 334 334 334 334 335 335 336 335 336 335 334 333 332 333 332 330 330 331 332 332 331 331 331 331 329 327 326 326 326 326 327 327 326 326 326 324 322 321 319 317 316 317 319 321 319 317 318 317 313 314 318 317 316 316 315 314 312 312 311 311 312 314 314 315 315
338 338 338 337 335 334 336 338 338 338 339 337 336 335 336 337 337 336 335 334 333 334 334 334 335 335 335 335 335 335 333 332 332 333 332 331 331 331 331 331 330 331 331 330 329 328 326 325 326 326 326 326 327 326 327 327 327 327 325 324 322 321 322 323 323 321 321 319 314 313 316 317 317 316 314 312 310 308 307 307 309 310 310 312 313
337 337 336 335 334 335 337 338 338 338 338 337 336 335 337 338 337 336 335 335 333 334 334 334 335 334 334 334 334 335 333 331 332 332 332 331 331 331 330 330 329 330 330 329 329 329 328 327 326 327 326 326 327 327 327 328 328 328 328 328 327 326 325 325 324 324 324 321 316 313 313 312 313 314 313 311 308 306 305 305 305 306 307 308 310
337 336 336 336 335 335 337 338 337 337 337 336 335 335 337 338 337 336 336 335 334 334 334 333 334 334 334 333 333 334 332 331 332 331 331 332 331 331 331 329 330 331 330 330 330 330 329 329 328 328 327 325 326 327 327 327 327 328 328 328 329 328 327 327 325 325 325 322 318 314 312 311 311 314 316 314 311 310 308 307 306 305 305 305 306
338 337 337 337 336 336 337 337 337 336 336 337 336 336 337 337 336 335 335 334 333 334 333 333 333 334 334 333 333 333 331 331 332 331 331 332 332 331 330 330 330 331 331 330 330 331 330 330 329 329 328 326 326 326 326 326 326 327 327 327 328 328 328 328 327 326 326 325 320 316 314 314 315 317 319 319 320 319 317 317 315 313 313 312 312
338 338 338 337 337 336 336 337 337 336 336 336 337 337 336 336 336 334 333 333 334 334 333 333 333 334 334 333 333 332 332 332 331 331 331 331 332 332 331 331 330 330 330 330 330 330 330 329 329 329 329 328 328 327 327 328 327 326 326 326 327 328 328 328 328 327 326 326 323 318 316 317 318 319 320 322 323 323 323 322 322 321 321 321 321
338 338 338 337 337 336 336 336 336 336 336 336 336 337 337 336 336 335 333 333 333 334 334 333 332 333 332 332 333 332 332 333 332 332 331 330 331 331 330 331 331 329 329 330 329 329 329 329 329 329 330 330 330 329 329 329 327 326 326 326 326 327 328 328 328 328 327 327 325 321 319 319 318 319 322 323 323 323 324 324 324 324 324 323 324
336 335 336 338 338 337 337 336 336 336 335 335 335 336 336 336 336 335 334 333 333 333 333 332 331 331 331 331 332 332 331 332 333 332 331 331 331 331 330 331 331 330 330 330 329 329 329 330 329 329 330 330 330 329 329 329 328 327 326 326 326 326 327 328 328 328 327 327 326 324 323 323 322 321 323 324 324 324 324 325 325 325 324 325 325
335 334 334 337 338 337 337 337 337 336 335 334 334 334 334 335 335 335 334 333 332 333 332 332 332 332 332 332 330 331 332 331 331 331 331 331 330 331 331 331 330 329 330 330 329 329 329 329 330 330 330 330 330 329 329 329 329 329 328 326 326 327 327 328 328 328 328 327 327 326 325 326 325 324 323 324 325 326 326 325 325 325 324 323 322
335 334 334 337 338 338 337 336 336 336 335 334 333 333 333 334 334 333 334 333 332 332 332 334 334 332 333 333 331 331 332 331 330 331 331 331 330 331 331 330 329 329 329 329 329 329 329 329 329 329 329 329 329 328 328 328 328 329 327 326 326 327 327 328 328 328 327 327 327 326 326 326 325 324 324 325 325 326 325 325 325 325 320 315 313
335 334 334 336 337 337 338 336 336 335 335 335 334 334 333 333 333 333 333 333 333 332 333 333 333 332 332 332 331 331 331 331 331 330 330 330 330 331 329 328 329 329 328 329 329 329 329 329 328 328 328 328 328 327 327 327 326 327 327 327 327 327 327 327 327 327 327 327 327 326 326 326 325 325 325 325 325 324 321 320 320 319 313 308 308
334 334 334 334 334 335 335 336 336 335 335 335 334 334 333 333 333 333 333 334 333 332 333 332 332 333 333 332 331 331 330 331 331 330 330 330 330 329 328 328 328 328 328 328 328 328 328 328 328 327 327 328 328 327 326 324 323 325 327 327 327 326 326 326 325 325 326 326 326 326 326 326 325 324 323 322 321 317 313 311 310 309 306 305 306
334 334 333 333 333 333 333 334 335 335 334 334 333 333 334 333 333 334 334 334 332 331 332 331 332 332 332 332 331 331 331 330 329 330 331 331 330 329 328 328 327 327 327 327 327 327 327 327 327 326 327 328 327 326 325 323 322 325 327 326 326 325 323 324 325 325 325 324 324 324 324 322 320 317 315 314 312 310 307 306 304 303 303 303 302
333 332 333 332 332 332 333 333 333 332 332 333 334 334 334 334 334 334 335 333 331 331 331 331 332 332 331 331 331 331 331 330 330 330 331 330 330 329 328 328 327 327 327 326 327 327 326 326 326 326 327 326 326 325 324 321 322 324 325 325 324 322 319 319 320 321 319 317 316 317 316 314 311 309 307 307 306 305 303 302 302 301 301 301 301
333 332 332 332 331 331 332 331 331 331 331 332 334 334 334 334 334 335 334 333 332 332 331 331 332 331 331 331 331 331 331 331 331 330 330 331 330 328 328 328 327 327 326 326 326 326 326 326 326 326 326 325 324 322 318 316 320 322 321 319 318 316 315 313 312 312 310 309 308 308 307 306 305 304 303 303 303 302 302 302 302 302 302 302 301
332 332 332 332 332 331 331 331 331 331 330 330 331 333 334 334 334 334 333 332 333 332 331 331 331 331 331 331 331 332 331 331 330 328 328 330 329 328 328 327 327 326 325 325 325 326 326 326 326 325 324 323 321 319 315 313 316 316 313 311 310 309 308 306 306 306 305 305 304 304 303 303 303 302 302 302 302 302 301 302 302 303 304 304 304
330 331 332 332 331 330 330 329 330 330 330 329 329 331 333 333 333 333 332 332 332 332 331 332 331 332 332 332 332 333 331 330 329 329 329 329 329 328 327 326 327 325 324 324 324 325 325 325 325 324 322 321 319 317 315 312 310 309 306 305 305 304 304 304 304 304 304 303 303 302 302 302 302 301 301 301 301 301 300 300 300 301 301 303 303
329 330 330 330 329 329 329 329 329 329 329 329 329 329 331 332 332 333 332 333 333 331 330 332 332 332 331 332 333 332 330 329 328 330 329 328 328 328 327 326 326 325 324 323 323 323 324 323 323 321 319 318 316 315 314 309 305 304 304 304 304 304 304 303 303 303 302 302 303 303 303 302 302 302 302 302 301 301 301 301 301 300 300 300 301
329 329 329 328 328 328 328 328 329 329 329 330 330 329 330 329 330 333 333 332 333 332 331 331 331 330 330 331 332 331 329 328 328 328 328 328 328 327 327 326 325 325 324 322 322 321 321 321 320 318 316 315 314 313 311 306 303 303 304 305 304 303 303 303 302 302 303 303 305 305 306 306 306 305 305 304 304 303 302 301 301 301 301 301 301
329 329 329 328 328 327 327 327 328 328 329 329 329 329 329 328 328 332 331 331 333 332 331 331 331 331 330 330 331 331 329 328 328 328 327 327 328 326 327 327 325 324 323 322 322 321 319 319 318 317 315 314 313 311 308 305 304 305 305 304 303 303 303 303 304 304 305 306 308 309 309 309 309 309 308 308 307 305 304 303 302 301 301 301 301
329 329 328 328 327 326 326 327 327 328 329 329 328 328 329 328 328 330 329 329 333 333 332 332 332 332 331 329 330 329 329 328 328 327 326 326 326 326 326 325 324 323 322 322 321 320 319 317 316 315 314 313 311 309 307 306 307 308 306 304 303 304 305 305 306 307 308 309 309 309 309 310 310 310 309 309 308 307 306 305 303 302 301 301 301
328 327 328 328 327 326 326 326 326 327 328 328 327 328 328 328 328 328 328 328 331 332 332 332 332 332 331 329 329 328 328 328 327 328 327 326 325 323 323 323 322 322 322 322 321 320 319 317 316 314 312 311 310 309 308 308 308 309 307 305 304 305 306 307 308 309 309 309 309 309 309 309 309 309 309 309 309 309 308 307 305 304 302 301 301
327 327 327 327 326 326 325 325 326 327 327 326 326 327 327 328 328 328 328 328 328 330 332 332 331 332 331 329 328 328 328 329 329 328 327 325 323 322 322 322 322 321 321 322 321 320 318 317 315 313 311 311 311 310 309 309 309 309 309 307 306 306 307 308 308 308 309 309 309 309 309 309 309 309 309 309 309 309 308 307 307 305 304 302 301
328 327 326 326 326 326 325 324 324 326 326 325 326 327 326 326 326 326 327 327 326 327 330 331 331 331 330 329 329 329 328 328 329 327 325 323 321 320 320 321 321 321 321 321 321 319 318 315 313 312 312 312 311 311 309 309 309 310 310 308 306 306 307 308 308 308 309 309 308 308 308 308 308 308 308 308 308 309 308 308 307 306 305 303 301
327 327 326 326 326 326 325 323 323 325 326 325 325 326 325 325 325 325 325 325 325 327 329 330 330 330 329 328 328 329 329 328 326 325 323 322 320 319 319 319 320 320 320 320 319 318 317 315 312 311 311 311 311 311 309 309 309 310 310 308 306 307 308 307 308 308 308 308 308 308 308 308 308 308 308 308 308 308 308 308 308 307 306 304 302
326 326 326 326 326 325 324 323 322 324 325 325 324 324 324 324 324 324 324 324 325 327 330 330 329 329 328 328 328 329 328 326 324 322 322 321 320 319 318 318 318 318 318 318 317 317 316 314 312 311 311 311 311 311 310 309 309 310 310 308 306 308 309 308 308 309 309 309 309 309 308 308 308 308 308 308 308 307 307 308 308 307 306 304 302
325 325 325 326 326 325 323 322 321 323 324 324 323 323 324 323 323 323 323 324 325 327 329 330 329 329 328 328 328 329 327 324 322 321 321 320 319 319 319 319 318 318 317 316 316 316 316 314 313 312 311 311 311 312 311 309 309 310 311 309 307 309 310 310 309 309 309 309 309 309 308 308 308 308 308 308 308 307 307 307 308 307 306 304 302
324 324 324 325 326 324 322 321 320 321 323 323 322 322 322 322 322 322 323 324 324 325 327 329 329 329 329 329 329 329 326 323 321 321 320 320 319 319 319 319 319 319 319 318 317 316 316 315 314 313 312 312 312 312 311 310 310 310 311 310 309 310 311 311 311 310 309 309 308 308 309 308 308 308 308 308 308 307 307 307 308 307 306 304 302
322 323 324 325 325 323 321 319 319 320 322 322 321 321 321 321 321 322 322 322 323 323 324 326 326 327 326 327 327 327 325 323 322 321 321 320 320 320 320 320 320 320 320 319 318 317 317 317 316 314 314 313 313 313 312 311 311 310 311 311 310 311 311 311 311 311 309 309 308 308 308 308 308 308 308 308 307 307 307 307 307 307 306 304 302
322 323 324 324 323 321 320 319 318 318 319 320 320 320 321 321 321 321 322 322 322 322 323 323 324 325 325 324 325 325 325 324 323 322 322 321 321 322 321 321 320 320 320 320 319 319 318 318 317 316 315 314 314 314 313 313 312 312 312 312 311 312 312 312 311 310 310 309 308 308 308 308 308 308 308 308 307 307 307 307 307 306 305 303 302
322 322 323 323 321 319 319 318 317 317 319 320 320 320 321 321 321 321 322 322 322 322 322 323 323 323 324 324 324 324 325 325 324 323 323 323 323 322 322 321 320 320 320 320 319 320 320 320 319 318 316 315 315 315 314 314 314 314 314 313 313 313 312 312 312 311 310 309 309 308 308 308 308 308 308 307 307 307 307 307 307 306 305 303 301
321 322 322 322 321 319 318 318 317 318 318 319 320 320 320 320 321 321 321 321 321 321 321 322 322 322 322 322 323 323 323 324 324 324 324 323 323 321 321 320 320 320 320 320 320 320 320 320 320 319 318 317 316 316 316 315 314 314 314 314 314 314 314 314 314 313 312 311 310 309 309 308 307 307 307 307 307 307 307 307 306 305 304 302 301
320 321 321 321 321 320 319 319 319 318 319 321 322 321 320 320 320 321 321 321 321 321 320 320 321 321 321 321 322 323 322 322 322 322 322 321 322 322 322 321 320 320 320 320 320 320 320 320 320 320 320 319 317 317 316 316 316 315 315 315 315 315 315 315 315 315 315 314 313 312 311 309 308 307 307 307 307 306 306 306 306 305 304 303 301
321 321 320 321 321 320 320 321 320 320 322 322 321 321 321 321 321 320 321 321 320 320 320 320 320 320 320 322 322 319 317 317 317 317 318 318 318 320 322 322 322 322 321 321 321 320 320 320 319 319 320 319 318 317 317 316 316 315 315 315 315 315 315 315 316 315 315 315 315 315 313 311 309 309 308 307 307 306 306 306 306 306 305 304 301
321 321 320 320 320 320 320 320 321 322 323 321 319 319 320 321 322 321 320 320 320 320 320 320 319 319 319 321 320 316 314 316 315 314 315 315 315 317 318 319 319 320 320 320 320 320 320 320 319 319 319 319 319 318 318 317 317 316 316 316 316 316 316 316 316 315 315 315 315 315 314 313 311 310 310 309 309 307 306 307 307 306 305 304 302
321 321 322 322 322 322 320 320 323 322 319 316 316 317 318 319 321 322 321 320 320 320 320 319 319 319 318 319 320 318 318 318 318 318 318 317 317 318 318 319 319 319 318 319 319 320 320 320 320 319 319 319 319 318 318 317 317 316 316 316 316 316 316 316 316 316 316 316 316 315 315 314 312 312 312 312 310 309 308 308 307 306 305 304 302
321 321 321 321 322 322 322 323 323 321 317 315 315 315 315 315 316 318 320 321 320 318 319 319 319 319 319 320 321 322 321 320 320 321 321 320 320 319 319 320 320 320 320 320 320 320 320 321 321 320 320 319 319 319 318 318 318 318 317 317 316 316 316 316 316 316 316 316 316 315 315 314 313 313 313 312 311 310 309 309 308 306 305 303 300
318 319 319 318 317 319 321 323 322 319 317 317 317 316 316 315 315 315 317 320 321 320 319 319 320 320 321 322 323 323 323 322 321 321 322 323 323 322 322 321 321 321 321 321 321 320 320 320 320 320 321 320 320 320 319 319 319 319 319 319 319 318 318 317 317 317 316 316 315 315 315 314 313 313 312 312 311 310 309 308 307 306 305 302 301
317 317 318 317 316 319 321 322 320 318 317 317 317 317 317 317 316 316 316 320 323 321 320 321 323 323 324 325 325 324 323 322 322 323 324 324 324 324 324 323 322 322 322 322 322 321 320 320 320 320 321 321 320 320 319 319 320 320 320 320 320 319 317 317 317 316 315 315 315 315 315 314 313 313 312 311 310 310 308 307 307 306 304 303 302
318 319 319 319 319 321 322 321 319 317 317 317 317 317 318 317 317 317 318 321 323 321 321 323 324 324 325 325 325 324 324 322 323 324 324 324 323 323 324 323 322 321 321 321 321 322 321 320 319 319 318 319 319 319 319 319 319 318 318 319 319 318 317 317 316 314 313 313 314 314 314 313 311 311 311 310 309 309 308 307 306 305 304 302 301
320 320 320 320 321 321 321 320 318 318 318 318 318 318 318 318 318 320 322 323 322 322 323 324 324 323 322 322 323 323 323 322 322 324 323 323 322 322 323 324 322 320 320 319 320 321 321 320 319 317 317 317 317 318 318 317 317 317 317 318 319 318 317 317 317 315 313 311 311 312 312 311 310 310 310 309 307 307 306 306 305 304 303 301 300
319 319 318 318 319 320 319 319 318 317 317 318 318 318 319 319 319 320 322 322 321 322 323 323 323 322 321 322 322 321 321 322 322 323 323 322 321 321 322 323 322 320 319 319 319 320 320 320 319 318 317 317 316 317 317 317 317 317 316 317 318 317 317 317 316 315 313 311 309 310 310 309 309 309 308 307 306 305 305 304 303 302 302 301 300
316 316 315 314 315 316 315 314 313 312 312 313 314 315 317 318 318 319 321 321 321 321 321 321 322 321 320 320 322 320 318 318 320 320 320 320 319 319 321 322 321 320 319 320 320 320 319 319 318 317 316 316 316 316 316 316 316 316 315 316 317 316 316 316 315 315 314 312 309 309 309 309 308 308 307 307 306 304 304 304 303 302 302 301 301
Wind_Speed
16 14 13 13 12 11 11 10 9 9 9 9 9 9 8 8 7 8 7 7 7 8 8 9 10 11 9 9 9 9 8 9 15 13 14 14 12 11 11 10 11 10 10 10 9 9 9 8 7 8 8 9 8 8 8 9 9 9 9 9 8 9 9 9 11 12 11 12 12 11 12 12 13 13 13 13 13 12 12 11 11 12 12 13 13
15 14 13 13 12 11 10 10 9 10 9 9 9 8 8 7 7 7 7 8 8 8 9 10 10 10 9 9 9 10 9 10 16 14 14 15 12 12 12 10 10 10 10 10 10 9 9 8 8 8 8 9 8 7 8 8 8 7 7 8 8 8 8 9 11 11 11 11 11 12 12 12 13 12 12 13 13 12 12 12 12 12 12 13 12
13 13 14 13 12 11 11 11 9 10 10 9 9 7 7 6 6 5 6 7 7 7 7 8 8 8 8 9 9 9 8 13 16 12 14 14 12 12 12 11 10 10 10 10 10 9 8 8 8 8 9 9 8 7 7 7 6 6 6 7 7 8 8 9 10 11 10 11 11 11 11 11 11 11 11 12 12 12 12 12 12 12 11 12 12
12 12 14 13 12 11 11 11 9 9 9 9 8 7 6 6 5 4 4 5 5 5 6 6 7 7 7 9 8 7 4 13 14 11 15 14 12 12 11 11 11 10 9 8 9 9 9 9 9 9 9 8 7 7 7 7 6 6 6 7 7 8 9 9 9 9 9 10 10 10 10 10 10 11 11 12 12 12 13 13 13 12 11 12 11
10 11 13 12 12 12 11 10 9 8 8 8 7 6 6 6 5 5 5 5 5 5 5 5 5 4 5 8 6 4 3 14 14 12 16 14 12 12 10 10 11 10 9 7 8 9 9 8 8 9 8 7 7 7 7 6 6 6 7 8 8 8 8 8 8 9 9 9 9 9 9 10 10 11 11 12 12 13 13 13 13 13 12 12 11
10 11 12 12 12 11 11 10 9 8 8 7 6 6 6 6 6 6 6 6 5 6 5 5 5 5 5 6 3 1 5 15 12 10 13 13 12 11 10 11 10 9 8 7 8 8 9 7 7 7 7 6 5 6 7 6 6 7 7 8 8 8 8 8 8 8 8 8 8 8 8 10 10 10 11 11 12 12 12 13 13 13 13 12 11
10 10 11 12 13 11 11 10 10 9 7 7 5 5 5 5 6 5 6 7 6 6 6 5 5 5 4 5 2 2 3 11 9 9 11 11 10 9 11 11 9 9 8 7 7 8 9 8 7 7 6 5 5 5 6 6 7 8 8 8 8 7 7 8 8 8 7 8 9 9 9 10 10 10 10 10 10 10 11 12 12 13 13 12 11
10 9 10 11 11 11 10 9 11 9 7 7 5 5 5 5 4 5 6 6 5 5 5 5 4 3 3 3 3 2 3 8 8 9 9 9 10 10 10 11 10 10 9 8 7 8 9 8 8 7 6 6 7 7 7 8 10 10 9 8 8 7 7 7 6 7 7 7 8 9 9 9 10 10 10 10 10 10 10 11 11 12 12 12 12
10 9 10 10 9 12 11 9 9 8 7 7 6 5 6 5 5 5 6 6 6 6 5 5 4 3 3 3 2 1 4 5 6 8 8 9 10 9 8 9 11 11 10 10 9 9 9 8 9 8 8 9 8 9 8 9 11 12 11 10 10 9 8 7 6 7 7 7 7 8 9 9 9 9 9 10 10 10 11 11 11 11 11 11 12
10 9 11 9 8 11 11 10 8 7 7 7 6 6 6 6 5 5 6 6 6 6 5 4 4 4 4 3 1 2 4 5 6 8 9 9 8 7 8 9 11 11 10 11 10 10 9 9 9 9 9 9 9 8 7 7 7 8 9 9 9 9 8 7 6 8 7 5 5 7 9 9 9 8 9 9 10 10 10 10 10 10 11 11 11
9 9 10 8 7 8 8 8 8 7 7 7 7 7 6 6 6 5 5 5 4 5 5 4 4 3 3 3 2 2 5 6 6 9 9 9 8 7 9 10 11 10 10 10 9 9 9 9 9 8 8 8 8 7 7 5 5 4 5 5 5 5 6 5 5 7 7 6 6 7 8 10 10 9 9 9 9 10 9 9 9 9 10 10 10
9 8 9 7 7 7 7 7 7 7 7 7 7 8 7 6 6 6 5 4 4 5 5 5 4 3 2 4 4 3 5 5 5 9 11 9 10 8 8 10 10 9 9 9 9 9 9 9 10 9 7 8 7 7 6 5 4 4 3 2 2 1 3 4 4 6 7 7 8 8 8 10 11 10 9 9 9 9 9 9 9 9 10 10 11
8 8 8 7 6 7 7 7 7 7 7 6 6 7 7 7 6 6 6 6 5 5 6 6 5 5 2 3 5 3 5 6 5 9 10 9 9 7 7 9 8 8 7 8 9 8 7 8 9 9 7 8 7 6 5 4 4 3 2 2 2 1 1 3 4 5 6 7 8 9 10 11 11 10 9 9 9 9 9 10 10 11 11 12 12
9 8 8 8 7 7 8 7 7 7 7 6 7 7 7 7 7 7 7 6 6 5 5 5 5 5 3 3 4 3 5 7 5 6 8 9 8 5 6 8 7 8 7 7 8 6 6 7 8 9 7 6 6 5 4 4 2 1 1 1 2 2 1 2 4 5 4 5 7 9 12 12 12 12 10 9 9 9 9 9 10 11 12 12 13
10 9 8 8 7 7 8 8 8 9 8 8 8 8 8 7 7 7 7 7 6 5 5 4 4 3 2 1 2 3 4 5 5 5 6 7 7 5 6 7 6 7 8 8 8 7 6 7 7 8 7 5 5 3 3 2 0 0 1 2 2 3 2 2 4 6 6 5 6 9 11 12 12 11 10 9 9 9 9 9 9 9 10 10 9
9 9 8 8 8 7 8 8 8 8 9 10 10 9 9 8 7 6 7 7 7 7 6 4 4 4 2 0 1 1 2 5 7 6 4 5 5 4 6 6 5 7 8 9 9 9 7 7 6 5 5 5 3 3 2 1 1 2 2 1 2 3 3 4 3 6 8 6 7 8 8 10 9 9 9 8 8 7 7 7 8 8 8 8 7
8 8 8 8 8 8 8 9 8 8 9 10 12 12 10 9 7 7 7 7 7 8 7 4 4 5 3 1 0 1 1 6 7 5 4 4 4 5 5 5 4 5 7 8 8 8 7 5 4 4 4 4 4 3 2 3 4 4 5 4 4 4 4 3 2 6 8 6 7 7 6 7 7 8 8 7 6 6 7 8 10 10 10 10 9
7 7 8 8 9 9 9 9 9 8 8 8 9 11 10 9 8 7 7 5 5 6 8 6 4 4 3 2 4 2 1 6 6 4 4 3 5 6 5 5 6 6 7 8 7 6 6 4 4 4 5 5 5 6 6 6 6 5 6 6 6 6 6 6 5 7 7 7 7 6 5 6 7 7 6 5 6 7 8 9 9 10 9 10 10
7 7 7 8 9 9 9 9 9 9 9 8 8 9 8 8 8 7 6 5 4 3 6 7 5 4 4 4 4 3 2 6 4 4 4 3 5 7 7 7 7 6 6 7 6 6 5 4 5 5 6 7 7 9 12 11 10 10 10 10 10 10 10 11 10 9 9 8 8 6 6 7 6 6 5 5 5 7 9 8 8 8 8 9 10
7 7 7 8 8 9 9 9 9 9 9 8 8 9 7 7 8 6 4 4 4 3 4 6 6 6 5 5 3 3 4 5 3 2 4 4 5 6 7 8 7 6 6 6 6 6 6 6 7 6 8 8 8 11 14 14 14 15 14 13 14 14 15 16 16 15 14 13 12 11 11 10 8 7 7 7 7 8 10 9 9 9 8 9 9
7 7 7 7 7 8 8 9 9 8 9 8 8 9 8 8 8 7 5 5 5 5 5 6 6 5 5 5 4 4 5 6 5 4 3 3 5 6 7 7 7 6 5 5 6 7 7 7 7 7 9 10 10 13 15 14 15 15 15 15 15 15 16 16 17 18 17 15 16 15 14 13 11 11 10 10 10 9 9 9 8 9 9 9 9
8 7 7 6 6 6 7 7 7 8 7 7 8 10 9 9 8 7 7 7 6 6 7 7 5 4 5 5 5 4 3 5 8 7 4 3 3 6 8 8 6 6 6 6 7 7 7 7 7 8 10 11 12 13 14 14 15 15 14 14 14 13 13 14 15 15 15 15 16 15 14 14 12 12 11 10 9 9 8 8 9 9 9 9 9
8 8 7 6 6 6 6 6 6 6 6 7 8 9 9 8 8 8 8 8 7 7 7 7 5 5 5 4 4 1 2 1 3 5 4 4 5 6 8 8 8 8 7 7 7 8 8 8 9 9 11 12 13 13 13 14 15 13 12 12 12 12 12 13 14 14 15 15 15 15 14 13 12 11 11 10 10 9 9 8 8 9 9 10 10
8 8 7 7 6 6 6 6 5 5 5 6 6 7 8 7 8 8 9 10 9 7 7 7 6 6 5 5 3 1 0 3 3 5 5 5 6 6 8 9 8 9 9 8 8 8 9 9 9 9 10 12 12 12 13 14 13 12 12 12 11 12 12 13 14 14 15 15 14 14 13 13 13 12 11 11 10 10 9 9 9 10 10 11 11
8 8 8 7 6 6 6 5 5 5 4 5 5 6 6 7 8 8 8 8 8 8 8 9 8 6 6 5 3 1 2 3 3 7 8 7 6 5 8 9 8 9 10 9 9 9 9 9 10 9 10 11 11 12 12 12 13 12 12 13 12 12 12 12 13 13 14 14 15 15 15 15 14 13 13 12 12 12 11 11 10 10 10 10 10
9 9 9 8 7 6 5 4 3 3 4 5 5 5 5 6 6 7 6 6 7 8 8 8 8 8 7 5 3 2 4 4 5 6 8 9 8 6 8 9 9 9 10 10 10 10 9 10 11 10 10 10 11 12 11 12 13 12 13 13 13 12 12 13 14 15 16 17 17 18 18 17 17 16 16 15 15 14 13 13 12 11 10 10 9
10 10 10 9 8 7 5 4 3 3 4 5 5 5 5 5 5 5 6 6 6 7 8 7 8 8 7 6 5 4 5 5 6 5 6 6 8 8 8 8 7 7 8 9 9 10 11 11 10 10 10 10 11 11 12 12 13 13 13 13 13 13 14 16 17 18 19 20 20 20 20 20 19 19 18 17 16 15 14 13 12 11 10 9 9
10 11 10 10 9 8 7 5 4 3 3 4 4 5 4 4 5 5 6 5 5 7 7 8 8 8 7 6 6 6 5 4 5 7 7 6 7 8 7 7 7 6 6 7 7 9 10 9 9 9 10 11 11 11 12 12 13 13 13 14 15 16 17 18 18 19 20 20 20 20 19 19 19 18 18 17 16 15 14 13 12 11 10 9 8
10 11 10 10 9 8 7 5 4 4 4 3 4 5 5 4 5 5 5 5 6 6 6 6 7 8 7 6 6 7 6 6 7 9 10 8 7 7 6 7 7 5 5 6 6 8 10 9 10 10 11 11 12 12 12 12 13 12 12 15 18 18 18 18 18 19 19 18 18 17 17 16 16 16 15 15 14 13 13 12 11 10 9 8 7
10 10 10 10 10 8 7 5 5 5 4 4 4 5 5 5 5 5 5 5 6 6 6 6 7 7 7 7 7 7 7 9 11 10 9 9 8 7 6 6 7 7 7 6 6 8 10 10 11 11 12 12 12 12 12 13 14 13 12 15 18 18 18 18 17 17 16 15 15 14 13 13 12 12 12 12 12 11 11 10 10 9 8 7 6
10 11 11 10 10 8 7 6 6 6 5 5 5 5 6 6 6 5 5 5 5 5 5 6 7 6 7 9 8 8 9 10 11 9 9 9 8 7 6 5 6 8 10 8 5 6 7 8 9 11 12 12 11 12 12 13 15 15 13 15 16 17 17 16 15 14 13 12 11 11 10 10 9 9 8 8 8 8 8 8 7 7 6 5 4
10 11 11 10 10 9 8 7 7 7 6 6 5 6 7 6 6 5 5 5 4 5 6 6 7 7 8 9 8 9 10 10 10 9 9 8 7 7 8 7 7 9 13 12 7 7 7 7 9 11 12 11 11 12 12 13 15 15 14 14 16 16 15 14 12 11 10 9 9 9 8 7 6 5 5 4 4 5 6 6 6 6 5 5 4
11 11 10 10 10 9 8 8 8 8 7 7 6 7 7 6 6 6 5 5 4 6 7 7 8 9 10 10 9 8 9 10 11 10 9 7 7 8 8 8 7 8 12 13 9 8 7 8 9 10 11 11 11 12 13 14 15 15 14 15 17 16 14 13 12 11 11 10 8 8 7 6 5 4 3 2 1 1 3 4 5 5 5 5 4
10 10 10 10 10 9 8 8 8 9 8 7 7 7 7 7 6 6 6 6 5 6 8 9 9 9 10 12 12 10 10 11 11 11 10 8 8 8 7 8 8 5 7 11 12 9 9 8 9 10 11 11 10 12 14 15 16 15 15 16 18 17 15 14 14 14 12 11 9 8 7 6 5 4 3 2 2 3 2 3 4 5 5 5 5
10 9 9 10 10 9 8 8 8 9 9 8 7 7 8 8 7 6 6 6 6 7 8 9 9 9 10 11 12 11 11 12 11 10 10 8 8 8 7 7 7 4 4 9 12 12 11 10 10 11 12 11 11 12 14 15 16 16 16 17 19 18 16 15 16 16 15 12 10 10 9 8 7 6 5 5 5 5 5 5 5 6 6 6 6
9 9 9 10 11 10 9 8 8 9 9 9 8 8 8 8 7 7 7 7 7 7 8 8 8 9 10 11 11 12 12 11 10 9 9 7 6 8 7 6 6 4 3 4 7 11 13 11 11 12 12 12 12 13 15 15 15 16 16 17 18 18 17 16 16 18 19 16 12 12 12 11 10 9 8 8 8 7 7 7 7 7 7 7 7
9 9 10 10 11 10 9 9 9 9 10 10 9 9 8 8 8 8 7 7 7 8 9 8 9 9 10 11 11 12 12 10 9 8 8 6 6 7 7 7 7 7 5 4 4 6 9 10 10 10 11 12 12 12 15 15 15 16 16 16 17 17 17 16 14 15 18 16 13 14 14 14 13 12 12 11 11 10 9 9 9 8 7 7 7
10 9 10 10 10 10 9 9 9 9 10 10 10 9 8 8 8 8 8 7 7 8 9 9 9 9 9 10 10 10 10 9 8 7 7 6 5 5 5 5 5 7 7 6 6 6 7 9 10 10 11 12 11 12 14 15 14 15 15 16 17 17 16 16 14 13 15 17 16 17 18 18 17 16 15 14 13 12 11 10 10 9 8 8 8
10 10 10 9 9 9 9 8 9 9 9 10 10 9 9 8 8 8 8 8 8 8 7 8 9 9 9 9 9 9 8 8 8 7 7 6 4 4 3 3 3 5 6 6 6 7 7 8 10 11 12 12 12 11 13 14 14 14 14 14 15 16 16 16 15 13 14 16 17 19 20 20 20 19 17 16 15 14 13 12 12 10 9 9 9
11 10 10 9 9 8 8 8 8 9 9 9 9 9 9 8 8 8 8 8 8 8 7 7 7 7 8 8 7 7 6 6 7 6 6 5 4 4 5 4 4 4 5 5 6 7 8 9 9 10 11 12 13 13 13 14 15 15 15 15 15 15 15 16 16 15 14 14 14 15 19 20 21 21 19 18 17 16 15 14 13 11 10 10 10
10 10 9 9 8 8 9 8 8 9 8 8 9 8 8 8 8 8 8 8 8 8 7 8 7 6 6 6 5 4 5 6 6 6 6 5 3 2 3 4 4 4 5 6 7 7 8 9 9 9 10 12 13 14 14 15 15 15 15 15 15 16 16 17 18 18 17 16 14 14 15 18 19 20 19 18 19 18 16 16 14 12 11 11 10
9 9 9 8 8 8 9 8 9 8 6 7 9 8 8 8 6 7 7 7 7 7 7 7 6 6 6 5 4 4 5 7 7 7 8 8 6 4 3 3 4 3 4 6 6 7 7 8 9 9 11 13 13 13 14 15 15 15 15 16 16 17 17 17 18 19 19 19 18 16 16 16 16 16 15 15 17 17 15 15 15 14 12 10 11
9 8 8 8 7 7 9 8 8 7 6 6 9 8 7 6 5 4 5 6 6 6 6 6 6 6 6 5 4 5 5 6 7 7 7 8 8 7 6 5 6 5 5 5 6 7 7 8 9 9 10 11 11 13 14 15 15 15 16 16 16 17 17 16 17 17 18 20 19 17 17 16 17 15 13 15 18 17 14 15 16 15 13 12 12
10 9 8 7 6 5 7 8 8 7 7 7 8 7 5 5 3 3 3 5 6 6 6 6 7 7 7 6 6 5 6 7 7 6 6 7 8 8 7 7 7 7 7 6 6 6 7 8 10 10 10 11 11 13 13 13 15 17 17 18 18 19 19 18 18 17 15 18 18 16 17 17 17 16 14 13 15 15 14 16 16 15 14 14 14
10 9 7 6 6 6 6 7 8 7 6 7 7 5 5 5 4 3 3 3 6 8 7 7 8 7 7 8 8 7 7 8 8 6 7 9 9 9 9 9 9 9 9 10 10 9 9 8 9 11 10 11 12 12 9 10 12 13 14 16 18 20 19 17 17 17 15 17 19 17 17 18 16 16 15 12 11 12 13 16 16 16 17 16 16
9 9 7 5 5 4 4 3 5 5 5 5 4 3 4 5 6 7 7 6 5 7 8 8 8 8 7 8 8 8 8 8 8 7 8 9 9 9 10 9 10 10 10 11 12 13 13 13 12 13 12 11 12 13 12 13 13 12 13 14 13 15 15 13 14 16 13 15 18 17 16 16 15 15 13 11 11 12 13 15 16 17 18 17 15
7 7 7 7 7 5 3 5 6 5 5 4 3 3 5 6 6 8 8 7 6 7 9 8 7 7 7 8 8 8 6 7 9 9 9 9 9 10 11 11 12 12 11 11 13 14 14 14 13 13 13 13 13 14 13 13 12 11 12 12 11 12 13 13 13 13 12 16 19 16 11 10 11 12 11 10 12 13 13 14 16 18 18 16 14
6 7 8 9 8 7 5 5 6 6 5 5 5 6 6 6 6 6 6 7 7 8 10 9 8 8 9 8 8 8 4 3 7 10 11 13 11 11 12 13 14 15 13 12 15 16 16 15 15 16 17 18 19 19 18 17 16 15 13 13 13 13 13 12 11 10 11 16 20 17 11 10 11 9 9 10 11 11 11 14 15 15 15 14 13
8 9 11 12 12 11 8 6 6 6 6 6 6 6 5 5 6 5 4 7 8 8 9 9 7 10 11 7 5 7 7 4 5 9 13 15 14 12 12 11 12 14 14 14 16 19 19 18 18 18 20 22 23 24 24 23 22 19 16 15 14 13 13 13 12 10 8 11 18 18 13 12 14 12 11 12 12 10 9 11 12 12 12 13 13
9 8 9 10 12 12 10 7 6 6 6 5 4 4 4 4 4 4 3 6 9 8 9 8 7 7 9 7 6 8 9 7 8 10 13 15 14 13 11 11 11 15 16 14 14 16 17 18 19 19 20 22 23 24 24 23 21 18 16 15 14 13 15 15 13 12 8 7 15 18 14 12 14 14 11 11 12 14 13 12 11 10 10 11 13
12 10 10 10 10 10 10 10 9 8 8 7 5 3 2 2 2 2 2 6 8 8 8 8 5 4 4 3 5 7 7 7 9 12 14 16 16 15 13 12 12 14 15 12 11 12 13 13 14 15 15 16 17 18 20 20 18 16 15 14 12 13 16 17 16 15 10 6 12 17 14 11 12 14 12 9 8 11 11 10 9 8 8 8 9
Wind_Direction
167 160 161 157 156 154 153 157 153 152 156 154 159 168 173 182 184 188 194 201 214 214 216 217 218 228 214 203 206 199 197 144 138 147 139 138 142 133 122 118 121 119 117 120 124 122 121 122 111 110 117 115 113 108 104 102 103 103 101 98 94 90 89 89 90 86 84 84 82 83 85 85 83 79 77 76 79 81 78 79 78 73 74 73 72
164 160 156 151 149 149 147 146 145 145 150 152 155 162 166 172 178 184 187 194 208 207 214 218 210 217 214 210 205 199 200 140 131 148 143 137 142 133 124 127 128 121 117 117 122 124 124 124 118 116 115 111 110 103 97 96 98 103 106 107 101 94 89 92 96 90 86 84 82 83 84 85 84 81 84 83 80 79 79 82 80 75 75 75 73
163 159 151 149 148 147 147 146 147 148 151 152 152 159 164 168 176 184 188 194 203 202 214 220 212 211 213 219 207 201 197 128 120 148 149 137 140 137 129 129 130 125 119 116 121 127 126 124 122 116 108 102 99 101 102 103 103 101 103 106 101 98 91 90 95 93 90 88 87 86 83 85 85 85 88 87 83 80 80 83 80 77 79 79 75
158 156 153 152 151 149 151 151 153 152 152 151 151 156 158 163 171 179 189 197 203 205 217 218 222 216 213 232 219 213 191 115 113 144 151 146 142 139 136 128 126 126 125 122 122 127 127 120 118 114 107 99 90 93 98 97 102 105 105 106 104 101 96 94 97 96 95 93 92 88 84 84 84 85 86 83 81 80 79 80 79 79 81 81 77
155 154 156 156 155 155 153 153 153 150 149 150 152 156 161 167 173 184 187 196 206 204 213 211 232 236 224 242 222 214 139 109 115 137 146 155 148 137 142 136 127 124 124 130 132 134 133 122 115 111 110 106 87 79 83 80 90 102 107 110 109 105 104 105 105 100 97 96 95 93 90 87 85 84 85 83 82 81 79 79 78 79 79 78 77
158 155 158 160 158 158 155 154 151 147 149 150 155 167 171 175 181 189 188 198 202 199 211 204 223 235 237 257 231 200 101 105 118 141 142 154 151 142 150 148 140 134 132 133 138 144 141 134 127 119 117 118 94 73 72 71 88 102 103 107 109 106 108 105 102 100 97 97 96 95 92 89 87 84 83 83 82 82 81 79 78 79 80 78 76
164 162 162 165 163 162 161 158 151 147 150 153 165 176 173 182 188 185 190 203 199 198 213 205 221 227 232 271 301 339 73 102 119 142 141 149 150 152 159 155 145 140 146 145 142 150 150 146 140 135 130 124 111 92 78 76 94 105 100 101 106 108 109 102 99 102 99 95 93 91 87 87 91 88 86 85 82 82 80 79 78 78 80 78 74
168 168 165 168 168 165 164 157 149 146 148 155 170 179 172 183 190 183 195 203 190 195 209 203 217 215 212 252 277 320 89 105 118 130 141 151 151 156 157 156 152 149 156 154 148 153 155 150 139 134 128 120 117 112 100 90 91 96 95 95 100 105 109 101 95 104 103 98 94 94 88 85 90 90 89 88 83 83 81 80 80 77 78 76 75
168 171 166 172 176 164 157 150 148 147 149 160 173 178 175 180 186 185 197 200 190 196 199 192 196 193 195 206 224 187 118 121 135 134 141 150 155 158 152 158 160 159 162 155 150 149 144 138 130 122 117 120 123 120 113 101 91 89 89 88 91 96 102 100 94 96 96 96 99 101 99 90 86 88 89 87 84 83 82 81 80 78 78 77 78
175 177 168 176 184 162 153 151 153 150 152 165 172 173 173 178 187 181 197 209 189 182 185 183 182 184 184 164 165 161 127 132 146 147 147 146 160 165 157 170 166 161 165 155 149 144 137 134 130 120 115 120 127 130 128 117 100 93 90 87 89 92 96 98 93 88 80 79 96 104 105 101 92 89 89 87 85 83 81 82 81 81 79 77 77
182 178 165 175 188 162 149 152 156 153 158 171 172 172 172 174 185 175 191 220 188 169 175 176 177 177 169 139 124 106 115 124 139 153 154 146 158 166 161 171 167 160 163 153 147 145 142 141 137 130 120 119 123 126 126 124 120 115 102 93 93 90 94 94 86 91 84 71 89 101 104 105 99 91 88 87 87 85 83 83 81 82 81 78 77
183 177 163 172 187 157 145 160 161 160 168 178 177 174 173 172 178 173 174 196 188 180 180 175 169 158 126 118 125 97 101 117 126 146 154 154 159 165 159 163 167 162 160 155 150 143 135 137 141 138 129 122 118 116 114 114 127 130 117 119 131 101 114 130 115 105 96 76 87 102 101 102 101 93 85 79 79 82 84 82 81 81 80 79 78
183 180 167 173 184 153 155 170 164 168 172 177 178 167 171 175 174 177 176 178 181 185 185 173 155 149 128 114 124 90 98 115 114 135 152 160 154 154 149 156 170 165 156 153 146 135 125 133 140 134 134 133 121 118 117 110 129 140 138 151 155 153 163 170 157 126 105 86 89 102 101 98 98 96 90 84 82 82 83 82 81 80 77 78 77
184 180 174 178 182 165 169 172 163 171 170 169 171 163 172 179 178 181 178 180 178 175 183 168 153 167 159 122 121 99 108 121 112 117 138 151 144 136 138 148 165 159 149 141 137 140 131 124 121 112 115 119 104 106 115 108 130 151 162 198 176 170 212 188 169 161 141 111 97 101 104 99 94 94 96 99 97 88 85 83 81 83 82 81 75
186 181 180 178 178 171 172 173 170 170 167 170 170 168 176 179 185 186 176 181 177 168 185 177 161 163 134 127 152 140 133 137 136 118 123 138 136 128 127 132 138 131 126 118 116 125 113 89 90 93 91 90 80 79 97 100 174 257 208 226 208 191 185 178 185 179 170 159 128 110 105 103 98 97 102 106 100 88 82 77 75 80 85 84 72
187 185 182 173 170 171 174 176 173 170 175 179 174 175 181 181 186 187 178 181 175 171 186 186 176 170 155 281 338 178 171 152 146 137 133 138 135 127 113 114 113 102 102 102 98 102 96 72 70 81 84 87 85 86 101 89 64 58 57 75 177 172 157 170 194 177 171 177 160 136 112 106 104 104 108 105 93 81 72 69 68 71 77 81 73
184 185 178 170 170 172 176 175 170 174 181 181 179 180 181 181 183 183 186 187 174 171 178 185 185 183 189 178 85 284 204 151 144 135 142 141 129 126 113 111 113 97 98 99 91 91 90 83 81 79 79 85 88 91 102 91 76 70 65 78 122 125 127 145 162 163 165 175 170 155 127 116 114 112 110 96 81 81 82 79 80 81 80 82 81
177 179 171 168 171 171 174 172 171 176 178 180 181 180 180 182 183 183 191 199 186 175 177 186 188 184 209 209 204 251 142 157 160 132 133 111 95 108 112 117 116 107 103 99 98 96 93 94 91 85 87 90 93 86 79 83 90 93 90 96 109 105 101 110 120 136 142 153 161 156 145 139 128 120 114 96 89 97 98 91 90 88 80 79 83
170 171 167 168 171 172 173 171 176 180 176 179 178 177 181 181 183 186 189 196 208 200 182 184 190 194 214 219 220 254 185 181 185 143 139 107 97 108 108 108 105 103 99 92 95 99 100 104 97 94 98 97 94 85 79 80 87 93 94 98 100 98 98 100 107 115 118 129 137 134 139 142 135 130 129 122 109 95 92 89 92 89 76 76 80
165 165 164 167 170 173 175 172 178 181 177 179 173 172 177 169 170 180 180 183 200 210 189 189 198 194 198 214 224 216 187 199 221 157 143 134 134 128 114 108 96 84 84 86 96 103 103 101 96 97 99 98 93 87 84 80 80 84 88 97 100 99 101 101 103 104 103 107 109 110 117 120 121 119 114 112 102 90 88 87 87 84 79 78 75
160 161 161 168 170 171 176 175 177 181 180 180 173 172 174 168 170 178 183 185 190 205 204 204 214 204 194 206 213 209 188 182 189 173 147 143 148 144 140 132 107 95 99 103 108 110 110 106 102 103 99 98 92 85 85 83 82 86 91 99 103 101 101 103 105 104 104 105 105 105 107 105 104 102 99 97 94 91 88 84 82 80 78 77 73
154 157 158 164 165 164 172 176 178 181 183 181 176 176 174 171 176 185 192 192 193 205 206 205 216 212 210 214 212 226 220 178 167 156 139 136 156 164 162 151 124 117 124 123 124 121 118 115 110 109 105 100 94 87 89 93 93 95 98 101 103 102 102 105 109 111 111 109 106 104 105 104 103 101 98 96 93 91 86 83 82 79 77 76 75
150 150 152 155 154 156 162 169 175 177 180 182 180 177 174 174 180 187 194 194 192 196 199 201 200 202 218 231 221 227 327 308 109 117 144 153 157 164 155 142 129 124 126 127 131 126 120 118 112 109 103 96 92 90 95 101 100 101 103 103 103 106 107 108 110 111 110 107 104 104 104 104 103 101 99 98 96 93 90 88 84 79 76 74 73
150 148 150 152 150 151 155 163 169 171 176 181 183 177 171 174 181 189 196 194 192 196 200 198 195 204 216 222 227 125 308 296 65 118 179 165 144 147 139 137 129 124 129 133 131 127 124 122 113 109 105 99 97 96 97 101 103 105 105 103 105 109 111 112 112 112 109 108 107 106 105 103 102 101 99 98 97 94 91 88 85 84 81 78 76
159 157 156 155 153 153 157 164 167 168 169 173 184 182 173 177 181 185 189 186 190 197 204 201 195 208 218 216 225 174 203 235 135 147 173 158 155 160 140 136 132 131 140 143 136 130 127 124 120 118 113 108 105 103 104 109 111 110 109 107 108 110 111 112 111 111 110 109 109 107 106 104 103 101 99 97 94 93 91 87 84 83 83 83 81
164 164 161 160 157 152 156 159 155 158 160 165 178 180 182 188 181 175 180 184 188 190 195 198 194 203 214 213 220 203 201 194 152 158 172 162 170 171 141 136 138 143 150 149 144 135 129 134 132 123 112 108 108 107 113 121 120 118 117 115 115 115 115 114 112 112 111 110 109 108 107 105 103 100 96 94 91 87 85 84 82 80 78 76 74
163 161 160 159 154 149 151 153 153 156 158 162 169 174 183 191 177 172 180 182 187 187 186 188 190 195 196 191 196 195 187 173 162 186 193 160 155 158 150 146 144 147 150 146 143 136 135 139 129 114 112 112 114 120 126 128 127 125 123 121 121 120 119 117 116 115 115 114 113 110 108 104 101 97 92 88 84 80 76 73 72 71 69 67 63
160 156 157 157 154 156 155 152 159 158 156 162 160 160 169 175 174 177 180 177 182 189 184 179 179 177 172 175 184 177 171 168 164 170 163 139 139 152 157 156 150 152 149 140 139 135 134 136 123 120 129 125 123 133 135 133 130 127 127 128 126 124 123 122 121 121 120 118 115 111 107 103 98 93 89 85 80 76 72 67 63 59 55 52 49
159 157 159 158 159 160 154 147 156 153 147 150 148 151 155 159 168 171 172 174 177 178 175 169 165 165 165 167 170 166 166 162 150 144 142 141 145 148 152 155 154 155 149 143 147 143 142 144 136 135 138 131 130 137 136 134 129 124 131 136 133 131 130 129 128 126 124 121 117 112 107 102 98 93 88 85 81 76 72 67 61 55 46 39 34
159 162 161 161 162 161 151 142 148 150 145 143 141 145 149 150 155 160 165 174 173 169 167 163 160 162 162 155 158 163 157 149 147 142 141 144 146 143 144 152 160 158 149 149 147 143 152 156 145 142 143 139 140 141 141 141 133 129 141 145 142 141 140 138 136 132 130 126 122 118 113 108 102 97 92 85 81 76 70 66 59 54 45 34 24
160 164 162 162 164 160 154 149 151 152 147 143 143 144 145 146 147 150 156 165 167 165 163 160 160 164 160 154 159 166 156 147 146 146 142 142 142 138 129 130 147 148 141 141 137 141 156 151 136 143 148 147 148 144 145 149 142 140 150 153 153 153 149 148 146 142 140 137 134 131 125 120 113 105 98 88 79 71 65 60 54 48 41 30 17
160 162 163 164 165 163 158 154 158 158 154 150 145 140 140 142 143 142 145 153 163 168 167 163 163 167 163 155 156 161 155 143 137 138 140 140 132 122 118 122 136 147 149 147 144 152 157 140 138 152 155 154 156 151 151 155 152 151 156 165 168 163 160 163 161 159 159 158 156 152 144 139 134 126 117 101 81 65 52 41 36 31 23 15 0
160 163 166 166 167 167 161 159 162 160 158 156 149 145 143 140 137 136 137 148 162 166 164 164 166 166 160 153 152 156 150 140 139 143 145 142 133 124 125 128 132 150 159 152 141 144 146 144 156 161 158 164 165 160 159 160 160 161 164 177 182 173 173 181 181 183 184 181 181 176 172 170 164 161 156 145 114 38 22 12 8 2 358 352 337
162 166 168 168 170 170 163 162 164 163 162 159 156 152 145 140 139 139 136 142 153 159 159 162 163 162 157 153 153 153 146 144 149 150 149 154 151 141 136 135 133 145 158 145 139 146 151 160 173 165 164 179 178 168 169 167 170 174 173 181 188 184 185 192 195 202 202 197 203 204 202 201 197 201 208 218 244 253 275 317 335 334 333 329 319
167 171 169 170 172 169 165 162 161 166 165 161 161 158 151 149 147 139 131 132 142 151 154 157 158 157 156 152 150 150 148 152 156 151 155 169 163 146 138 132 134 130 120 133 146 157 159 167 179 171 171 188 190 178 177 175 179 185 182 183 190 193 197 199 202 211 214 212 217 222 223 224 223 228 235 245 254 253 253 268 295 310 314 314 309
171 171 168 172 171 166 164 162 160 165 164 161 165 163 159 160 155 145 138 136 141 146 146 147 149 152 153 149 149 150 150 154 156 152 161 175 158 143 141 136 141 141 119 138 161 163 159 168 188 186 178 188 199 189 181 181 186 193 195 191 193 202 208 207 209 218 222 224 231 238 239 238 238 242 245 249 255 254 251 259 276 293 301 301 299
168 167 168 173 170 165 166 164 160 162 163 164 166 164 161 162 159 156 151 142 136 137 138 139 138 141 148 149 149 150 152 155 158 158 165 170 156 152 159 162 161 160 168 194 199 179 169 171 188 200 187 184 201 200 187 187 191 198 206 203 200 208 215 215 218 223 222 219 225 238 245 245 245 246 249 251 254 253 252 257 268 281 289 289 286
162 165 170 170 167 167 168 167 163 162 165 165 163 162 161 161 161 158 154 147 139 136 138 140 139 140 145 147 149 153 156 159 161 164 165 167 169 168 177 191 175 158 167 191 205 209 205 189 189 206 202 190 201 210 199 194 197 202 210 212 211 213 215 217 220 222 223 224 231 241 245 248 249 248 249 251 251 250 251 255 264 273 277 279 279
160 164 166 165 167 169 166 166 164 161 164 164 161 160 160 160 162 159 156 152 146 144 144 141 142 148 150 153 158 164 165 166 168 171 171 175 190 191 191 221 216 174 177 198 209 211 217 214 206 208 209 201 203 214 212 205 205 210 215 217 219 220 218 219 219 217 222 229 238 246 249 250 251 251 251 252 250 247 248 252 259 267 269 271 275
160 163 162 162 166 164 160 161 158 156 160 160 158 161 161 160 161 159 160 158 151 149 148 144 144 149 151 154 160 161 160 160 159 162 169 175 192 206 203 210 225 214 207 218 221 216 219 224 222 219 221 217 212 215 222 220 213 215 222 226 228 228 225 224 225 222 221 219 217 232 245 246 244 246 245 244 244 242 245 251 254 258 264 267 271
157 158 158 160 162 156 154 152 150 154 157 153 155 154 149 154 163 165 164 161 157 156 152 150 151 153 152 153 158 159 160 167 166 162 171 178 182 198 193 194 217 234 237 237 234 229 227 225 224 224 225 225 221 217 223 230 226 222 227 233 232 232 232 234 232 227 228 229 214 215 236 236 231 238 242 241 245 243 240 247 250 252 259 265 271
147 149 151 154 156 154 151 148 149 152 143 146 161 155 138 145 163 168 169 166 162 165 161 155 158 164 162 159 173 192 188 191 197 193 192 199 205 208 185 183 211 239 254 258 253 251 252 245 236 230 227 229 229 225 227 233 237 235 233 233 234 236 239 242 239 228 226 233 228 225 235 225 211 222 231 229 239 242 236 241 251 255 257 261 271
136 136 141 145 145 147 151 149 144 137 125 147 171 170 153 148 138 140 172 183 177 179 179 175 177 183 185 182 190 204 202 197 203 205 202 203 210 218 217 211 220 232 246 264 270 270 272 267 259 250 244 243 237 234 236 234 234 235 235 238 244 245 243 244 248 240 226 229 235 237 238 222 205 212 220 218 229 235 231 235 245 251 252 256 270
128 126 129 125 115 122 137 135 128 128 128 143 166 180 179 170 136 120 174 200 194 199 201 199 203 202 202 204 199 201 208 204 203 211 216 217 221 225 225 224 226 229 235 246 259 270 274 277 278 272 266 267 259 246 242 242 242 239 237 240 246 249 249 247 251 254 238 227 229 234 239 230 213 211 221 224 220 213 212 224 235 245 254 263 276
117 123 122 110 102 98 98 109 122 131 137 142 155 178 198 216 220 210 243 258 222 217 220 220 223 221 214 214 211 212 216 209 207 220 229 231 237 241 241 242 241 241 246 250 251 253 256 263 272 271 269 277 279 273 273 281 279 266 253 249 247 250 255 255 256 265 256 230 221 223 235 234 217 212 222 230 220 208 214 228 234 246 259 268 278
119 128 133 144 148 118 92 127 150 149 154 155 152 172 203 231 241 236 254 281 260 238 238 232 232 237 234 226 223 221 214 205 213 234 241 239 244 250 251 253 256 256 257 262 263 259 255 254 259 267 272 277 278 280 286 291 293 290 283 279 271 262 265 268 264 262 250 224 215 219 232 230 214 212 219 223 227 230 234 239 243 256 266 269 276
126 138 152 171 170 143 148 200 200 190 190 191 199 217 217 226 240 242 253 273 273 258 255 247 240 242 241 239 244 247 226 198 205 224 241 250 253 255 252 251 260 263 257 258 262 259 256 255 255 260 266 267 267 270 273 275 280 283 281 281 281 280 282 281 266 250 229 213 207 207 224 224 206 213 222 220 227 232 233 242 254 262 264 263 269
129 136 141 148 144 136 155 186 186 178 180 191 207 215 215 217 222 226 239 254 257 254 255 252 243 245 252 248 247 261 269 194 202 219 236 249 258 262 258 252 257 264 261 258 260 256 251 251 254 256 259 263 264 266 269 271 274 277 275 270 269 272 273 267 248 225 217 217 209 198 195 197 196 213 226 219 228 239 236 243 251 251 251 256 267
137 136 135 136 131 128 139 159 163 158 158 170 187 196 201 202 197 195 226 256 256 249 252 256 252 260 272 274 268 288 311 310 251 241 245 254 263 270 273 271 272 274 271 263 259 256 251 252 258 264 264 265 266 268 271 271 270 269 268 264 263 261 259 253 236 218 211 216 212 202 195 205 217 234 236 219 226 245 246 245 245 239 247 264 278
127 126 128 132 133 133 135 138 142 142 142 150 169 188 200 203 192 190 245 275 269 261 258 258 258 269 275 266 264 293 306 294 267 257 257 264 271 277 281 280 275 275 275 266 253 254 256 254 259 265 266 265 265 266 268 269 267 264 258 253 256 256 255 254 250 242 226 204 210 207 200 208 218 225 228 221 230 243 242 239 240 240 255 276 288
115 113 109 107 119 132 128 117 111 107 108 107 109 131 166 206 197 195 302 294 280 280 282 276 280 325 338 280 268 301 314 295 275 267 265 268 272 276 280 277 270 270 274 268 251 251 258 255 257 269 276 272 266 264 264 265 263 261 254 247 246 249 249 251 254 251 240 210 211 210 204 207 211 209 207 205 225 241 231 216 226 250 271 279 285